User: anonymous   Login
Location: Caltech
(34.1382°N, 118.1253°W)
Time: 22:25:41
(UTC-07:00)
Language:

AO-Echo - Orbit

View from above orbital plane
View from above orbital plane
View from above satellite
View from above satellite

Ground track
Ground track

The orbit data is extracted from the following two-line orbital elements,

1 28375U 04025K   15089.81269155  .00000373  00000-0  12327-3 0  9997
2 28375 098.2861 032.5388 0082182 205.5571 154.1545 14.41618139565195
Epoch (UTC): 30 March 2015 19:30:16
Eccentricity: 0.0082182
inclination: 98.2861°
perigee height: 694 km
apogee height: 812 km
right ascension of ascending node: 32.5388°
argument of perigee: 205.5571°
revolutions per day: 14.41618139
mean anomaly at epoch: 154.1545°
orbit number at epoch: 56519

The dashed part of the orbit path shows where the satellite is in the earth's shadow,  

DLR